Weather observations for the past three days for
Aberdeen, Aberdeen Regional Airport
Imperial (Metric)
Date Time (cdt) Wind (mph) Vis. (mi.) Weather Sky Cond. Temperature (ºF) Relative Humidity Wind Chill (°F) Heat Index (°F) Pressure Precipitation (in)
Air Dwpt 6 hour altimeter (in) sea level (mb) 1 hr 3 hr 6 hr
Max. Min.
15 04:53 SW 3 10.00 Fair CLR 72 66 82% 29.74 1006.0
15 03:53 S 7 10.00 Fair CLR 75 66 74% 76 29.72 1005.0
15 02:53 S 12 10.00 Thunderstorm in Vicinity CLR 73.9 66.9 79% 29.74 1005.8
15 01:53 S 12 10.00 Fair CLR 73.9 68 82% 29.77 1006.9
15 00:53 S 10 10.00 Fair CLR 75 68 87.1 72 79% 76 29.8 1008.1
14 23:53 S 8 10.00 Fair CLR 73.9 68 82% 29.82 1008.8
14 22:53 S 6 10.00 Fair CLR 73 69.1 87% 29.83 1009.2
14 21:53 SE 7 10.00 Fair CLR 77 70 79% 79 29.83 1009.0
14 20:53 E 5 10.00 Fair CLR 81 70 69% 84 29.85 1009.7
14 19:53 E 6 10.00 Fair CLR 86 70 59% 91 29.87 1010.4
14 18:53 E 7 10.00 Fair CLR 86 69.1 90 84.9 57% 90 29.89 1011.1
14 17:53 E 7 10.00 Fair CLR 88 68 52% 92 29.9 1011.6
14 16:53 E 6 10.00 A Few Clouds FEW045 89.1 68 50% 93 29.92 1012.1
14 15:53 NE 6 10.00 A Few Clouds FEW041 88 68 52% 92 29.93 1012.3
14 14:53 NE 6 10.00 Fair CLR 89.1 69.1 52% 94 29.93 1012.6
14 13:53 NE 6 10.00 A Few Clouds FEW033 87.1 69.1 55% 91 29.94 1012.8
14 12:53 Calm 10.00 A Few Clouds FEW031 84.9 68 86 69.1 57% 88 29.94 1013.0
14 11:53 Vrbl 7 10.00 Fair CLR 82.9 68 61% 86 29.95 1013.2
14 10:53 NE 6 10.00 Fair CLR 82 68 63% 85 29.95 1013.0
14 09:53 NE 13 10.00 Fair CLR 80.1 66.9 64% 82 29.95 1013.0
14 08:53 N 14 10.00 Fair CLR 77 69.1 77% 79 29.94 1012.7
14 07:53 NE 8 10.00 Fair CLR 73.9 66.9 79% 29.91 1011.7
14 06:53 NE 7 10.00 Fair CLR 69.1 64.9 75.9 69.1 87% 29.9 1011.4
14 05:53 SE 5 10.00 Fair CLR 71.1 64.9 81% 29.92 1012.1
14 04:53 SE 5 10.00 Fair CLR 71.1 66.9 87% 29.92 1012.0
14 03:53 NW 6 10.00 A Few Clouds FEW100 FEW120 73 66.9 81% 29.93 1012.4
14 02:53 NW 10 10.00 Mostly Cloudy BKN110 72 66.9 84% 29.95 1013.0
14 01:53 N 7 10.00 Fair CLR 73.9 66.9 79% 29.91 1011.7
14 00:53 NE 8 10.00 Mostly Cloudy BKN034 75.9 68 91 75.9 77% 77 29.9 1011.5
13 23:53 N 10 10.00 Fair CLR 79 70 74% 82 29.91 1011.7
13 22:53 N 9 10.00 Fair CLR 80.1 70 71% 83 29.92 1012.0
13 21:53 NW 9 10.00 Fair CLR 81 70 69% 84 29.89 1011.0
13 20:53 SW 6 10.00 Fair CLR 82.9 72 70% 88 29.88 1010.5
13 19:53 S 9 10.00 Fair CLR 88 72 59% 95 29.88 1010.6
13 18:53 SW 8 10.00 Fair CLR 91 70 93.9 89.1 50% 97 29.88 1010.6
13 17:53 SW 7 10.00 Fair CLR 93.9 68 43% 98 29.88 1010.6
13 16:53 SW 7 10.00 Fair CLR 90 70 52% 95 29.89 1011.1
13 15:53 SW 5 10.00 Fair CLR 91.9 70 49% 98 29.9 1011.2
13 14:53 W 5 10.00 Fair CLR 91 70 50% 97 29.88 1010.8
13 13:53 Vrbl 5 10.00 Fair CLR 90 69.1 50% 95 29.89 1010.9
13 12:53 W 7 10.00 Fair CLR 90 69.1 91 75 50% 95 29.9 1011.4
13 11:53 Calm 10.00 Fair CLR 86 75 70% 95 29.9 1011.4
13 10:53 S 6 10.00 Mostly Cloudy BKN011 82.9 73.9 74% 89 29.92 1012.0
13 09:53 S 7 10.00 Mostly Cloudy BKN009 82 73.9 77% 88 29.92 1012.0
13 08:53 S 13 10.00 A Few Clouds FEW010 80.1 73 79% 84 29.91 1011.6
13 07:53 SE 12 10.00 Fair CLR 78.1 72 82% 80 29.89 1011.1
13 06:53 SE 13 10.00 Fair CLR 75 69.1 80.1 72 82% 75 29.88 1010.7
13 05:53 S 13 10.00 Fair CLR 75 66.9 76% 76 29.87 1010.3
13 04:53 S 12 10.00 Mostly Cloudy BKN025 72 64.9 79% 29.92 1012.0
13 03:53 E 12 10.00 Overcast OVC026 73 64 74% 29.95 1012.9
13 02:53 E 14 G 24 10.00 Overcast OVC023 75 64 69% 77 29.96 1013.3
13 01:53 N 16 G 26 10.00 Partly Cloudy FEW019 SCT050 77 70 79% 79 29.95 1013.1
13 00:53 S 9 10.00 Fair CLR 75.9 70 91 75.9 82% 77 29.92 1011.9
12 23:53 SE 8 10.00 Fair CLR 77 71.1 82% 79 29.91 1011.7
12 22:53 SE 8 10.00 Fair CLR 79 72 79% 82 29.92 1012.0
12 21:53 E 6 10.00 Fair CLR 81 72 74% 85 29.9 1011.5
12 20:53 SE 6 10.00 Fair CLR 84 72 67% 90 29.9 1011.3
12 19:53 S 9 10.00 Fair CLR 88 73 61% 96 29.88 1010.8
12 18:53 S 14 10.00 A Few Clouds FEW045 91 72 91.9 87.1 54% 99 29.88 1010.7
12 17:53 S 15 10.00 Fair CLR 91 71.1 52% 98 29.88 1010.8
12 16:53 S 14 G 24 10.00 Fair CLR 91.9 71.1 51% 99 29.88 1010.8
12 15:53 S 18 G 26 10.00 Fair CLR 91 71.1 52% 98 29.89 1011.1
12 14:53 S 14 G 30 10.00 Fair CLR 91 71.1 52% 98 29.89 1011.2
12 13:53 S 17 G 26 10.00 A Few Clouds FEW036 89.1 69.1 52% 94 29.9 1011.5
12 12:53 S 17 G 26 10.00 Partly Cloudy SCT031 87.1 70 88 70 57% 92 29.91 1011.9
12 11:53 S 18 G 29 10.00 Fair CLR 84.9 69.1 59% 89 29.92 1012.1
12 10:53 S 18 10.00 Fair CLR 82.9 68 61% 86 29.91 1011.9
12 09:53 S 20 G 28 10.00 Fair CLR 80.1 66.9 64% 82 29.92 1012.3
12 08:53 S 16 10.00 Fair CLR 75.9 64.9 69% 78 29.93 1012.6
12 07:53 S 15 10.00 Mostly Cloudy BKN085 72 64 76% 29.93 1012.5
12 06:53 S 13 10.00 Mostly Cloudy BKN080 70 63 70 66.9 79% 29.94 1012.8
12 05:53 S 15 10.00 Partly Cloudy SCT075 68 62.1 81% 29.93 1012.4
Date Time (cdt) Wind (mph) Vis. (mi.) Weather Sky Cond. Air Dwpt Max. Min. Relative Humidity Wind Chill (°F) Heat Index (°F) altimeter (in) sea level (mb) 1 hr 3 hr 6 hr
6 hour
Temperature (ºF) Pressure Precipitation (in)